Regional Weather Roundup
Issued by NWS Boston, MA

Home | Current Version | Previous Version | Text Only | Print | Product List | Glossary On
Versions: 1 2 3 4 5 6 7 8 9 10 11 12 13 14 15 16 17 18 19 20 21 22 23 24 25 26 27 28 29 30 31 32 33 34 35 36 37 38 39 40 41 42 43 44 45 46 47 48 49 50
000
ASUS41 KBOX 240910
RWRBOX

REGIONAL WEATHER ROUNDUP
NATIONAL WEATHER SERVICE TAUNTON MA
500 AM EDT TUE MAY 24 2016

NOTE:  "FAIR" INDICATES FEW OR NO CLOUDS BELOW 12,000 FEET WITH NO
SIGNIFICANT WEATHER AND/OR OBSTRUCTIONS TO VISIBILITY.  THE FOLLOWING
OBSERVATION LOCATIONS DO NOT REPORT PRESENT WEATHER...PROVINCETOWN...
SMITHFIELD...BLOCK ISLAND...KEENE...AND OXFORD.

MAZALL-241000-
EASTERN MASSACHUSETTS

CITY           SKY/WX    TMP DP  RH WIND       PRES   REMARKS
BOSTON         HVY RAIN  53  51  93 NE18      29.91S FOG
BEVERLY        CLOUDY    54  50  86 E9        29.91R
LAWRENCE       CLOUDY    57  51  80 E12G22    29.92R
BEDFORD        LGT RAIN  57  54  89 E12       29.89R
BLUE HILL        N/A     51  51 100 NE17G29   29.87F
NORWOOD        LGT RAIN  54  52  93 NE9       29.89F FOG
MARSHFIELD     CLOUDY    52  52 100 NE10G17   29.89F FOG
PLYMOUTH       CLOUDY    51  51 100 NE9G20    29.88F
TAUNTON        LGT RAIN  56  52  86 VRB5      29.87S
NEW BEDFORD    CLOUDY    53  51  93 NE13      29.85F
$$

MAZALL-241000-
CAPE COD AND THE ISLANDS

CITY           SKY/WX    TMP DP  RH WIND       PRES   REMARKS
FALMOUTH       CLOUDY    52  52 100 NE9       29.86S FOG
HYANNIS        LGT RAIN  51  50  96 N12       29.85S FOG
CHATHAM        CLOUDY    51  50  96 NE12      29.86F FOG
PROVINCETOWN   CLOUDY    50  49  96 NE12      29.89F
NANTUCKET      CLOUDY    53  51  93 NE15      29.83S FOG
MARTHAS VNYRD  CLOUDY    53  52  96 NE13      29.84F FOG
$$

MAZALL-241000-
CENTRAL AND WESTERN MASSACHUSETTS

CITY           SKY/WX    TMP DP  RH WIND       PRES   REMARKS
WORCESTER      NOT AVBL
FITCHBURG      LGT RAIN  60  52  74 VRB3      29.90R
ORANGE         CLOUDY    57  52  83 NW5       29.89F
SPRINGFIELD    LGT RAIN  57  54  88 NE8       29.86S
WESTFIELD      CLOUDY    58  53  84 N6        29.86F
NORTH ADAMS    CLOUDY    56  53  90 CALM      29.89F
PITTSFIELD     CLOUDY    56  53  90 W8        29.89F
$$

RIZALL-241000-
RHODE ISLAND

CITY           SKY/WX    TMP DP  RH WIND       PRES   REMARKS
PROVIDENCE     LGT RAIN  56  53  90 NE10G17   29.88R
NEWPORT        CLOUDY    55  52  89 NE15G21   29.85R
BLOCK ISLAND   LGT RAIN  55  54  96 NE9       29.84S
SMITHFIELD       N/A    N/A N/A N/A MISG        N/A
WESTERLY       CLOUDY    58  54  86 VRB7      29.84S
$$

CTZALL-241000-
CONNECTICUT

CITY           SKY/WX    TMP DP  RH WIND       PRES   REMARKS
BRADLEY INTL   MOCLDY    57  54  89 N6        29.85F
HARTFORD       CLOUDY    61  55  81 NW5       29.85F
BRIDGEPORT     LGT RAIN  59  54  83 S3        29.85R
DANBURY        RAIN      56  54  93 SE3       29.88R
GROTON         CLOUDY    57  57 100 NE7       29.83S
NEW HAVEN      LGT RAIN  56  55  97 S6        29.85R
CHESTER        CLOUDY    55  55 100 CALM      29.85S
MERIDEN        RAIN      58  54  86 N6        29.85F
WILLIMANTIC    CLOUDY    58  54  86 CALM      29.86R
OXFORD           N/A     55  50  82 N6        29.87F
$$

MEZ002-015-021-024-NHZ003-005-008-011-012-014-VTZ005-008-241000-
NORTHERN NEW ENGLAND

CITY           SKY/WX    TMP DP  RH WIND       PRES   REMARKS
PORTLAND ME    MOCLDY    55  52  89 NE5       29.95R
BANGOR ME      CLOUDY    57  53  86 SE6       30.00R
CONCORD NH     PTCLDY    57  51  80 CALM      29.91F
MANCHESTER NH  CLOUDY    59  51  75 NE5       29.90R
NASHUA NH      CLOUDY    60  53  77 NE6       29.91R
PORTSMOUTH NH  NOT AVBL
JAFFREY NH     CLOUDY    53  49  86 CALM      29.90F
KEENE NH       CLOUDY    55  52  88 CALM      29.91S
BURLINGTON VT  FAIR      51  43  74 NE5       29.90S
MT. WASHINGTON MOCLDY    45  36  70 E21         N/A
$$

NYZ052-076-241000-
EASTERN NEW YORK

CITY           SKY/WX    TMP DP  RH WIND       PRES   REMARKS
ALBANY         CLOUDY    60  53  77 SW3       29.88F
NEW YORK CITY  LGT RAIN  60  60 100 NW7       29.86S
$$

ANZALL-241000-
MARINE OBSERVATIONS

STATION/POSITION TIME  TEMP    WIND        PRES    VSBY  WAVE
                       AIR SEA DIR/SP/G                  HT/PER
                 (UTC) (F)     (DEG/KT/KT) (MB)    (MI)  (FT/S)
BOSTON BUOY      0850   52 54   80/ 14/ 17 1012.2R         4/10
BUZZARDS BAY     0800   54      40/ 19/ 20 1010.8F
NANTUCKET SOUND  0850   52 54   30/ 14/ 16 1010.5R         2/ 3
MASS BAY-STELLWA 0804   51 52                N/A    1 7/8  4/ 8
ISLE OF SHOALS   0900   52      60/ 22/ 24 1012.0F
S OF BLOCK IS    0825      53                N/A           4/ 9
$$

......................KEY.........................
  SKY/WX - SKY CONDITION/PRESENT WEATHER
  TMP    - TEMPERATURE IN FAHRENHEIT
  DWPT   - DEWPOINT IN FAHRENHEIT
  RH     - RELATIVE HUMIDITY IN PERCENT
  WIND   - DIRECTION AND SPEED IN MPH
  PRES   - MEAN SEA LEVEL PRESSURE IN INCHES OF HG
  WCI    - WIND CHILL INDEX
  VSB    - VISIBILITY IN MILES
  HX     - HEAT INDEX
  TC     - TEMPERATURE IN CELSIUS
  VRB    - VARIABLE WIND DIRECTION
  N/A    - NOT AVAILABLE



USA.gov is the U.S. government's official web portal to all federal, state and local government web resources and services.